Van Lear, KY

3:51 AM EST on January 22, 2017 (GMT -0500)
Prestonsburg

Weather History for KK22 - August, 2013

Change the Weather History Date:

Tuesday, August 6, 2013

  Actual Average (KJKL) Record (KJKL)
Temperature  
Mean Temperature 72 °F -  
Max Temperature 82 °F 81 °F 94 °F (2006)
Min Temperature 62 °F 64 °F 55 °F (1997)
Cooling Degree Days 7    
Growing Degree Days 22 (Base 50)    
Moisture  
Dew Point 65 °F    
Average Humidity 78    
Maximum Humidity 96    
Minimum Humidity 54    
Precipitation  
Precipitation 0.00 in - - ()
Sea Level Pressure  
Sea Level Pressure 30.01 in    
Wind  
Wind Speed 1 mph (South)    
Max Wind Speed 8 mph    
Max Gust Speed -    
Visibility 10 miles    
Events      
Averages and records for this station are not official NWS values.
T = Trace of Precipitation, MM = Missing Value Source: NWS Daily Summary

Daily Weather History Graph

Daily Weather History Graph

Search for Another Location

Airport or City:

Trip Planner

Search our weather history database for the weather conditions in past years. The results will help you decide how hot, cold, wet, or windy it might be!

Date:

Astronomy

Aug. 06, 2013 Rise Set
Actual Time 6:38 AM EDT 8:33 PM EDT
Civil Twilight 6:09 AM EDT 9:02 PM EDT
Nautical Twilight 5:35 AM EDT 9:36 PM EDT
Astronomical Twilight 4:57 AM EDT 10:14 PM EDT
Moon 6:27 AM EDT (8/6) 8:09 PM EDT (8/6)
Length of Visible Light 14h 52m
Length of Day
13h 55m
Waning Crescent, 0% of the Moon is Illuminated
Aug 6
Waning Crescent
Aug 6
New
Aug 14
First Quarter
Aug 20
Full
Aug 28
Last Quarter

Hourly Weather History & Observations

Time (EDT) Temp. Heat Index Dew Point Humidity Pressure Visibility Wind Dir Wind Speed Gust Speed Precip Events Conditions
12:15 AM 65.8 °F - 61.3 °F 85% 30.02 in 10.0 mi Calm Calm - N/A   Overcast
12:35 AM 65.1 °F - 61.3 °F 88% 30.02 in 10.0 mi Calm Calm - N/A   Overcast
12:55 AM 64.6 °F - 60.6 °F 87% 30.03 in 10.0 mi Calm Calm - N/A   Overcast
1:15 AM 65.8 °F - 59.9 °F 81% 30.02 in 10.0 mi Calm Calm - N/A   Overcast
1:35 AM 65.3 °F - 61.2 °F 86% 30.02 in 10.0 mi Calm Calm - N/A   Overcast
1:55 AM 64.6 °F - 62.1 °F 92% 30.01 in 10.0 mi ENE 3.5 mph - N/A   Overcast
2:15 AM 63.7 °F - 61.3 °F 92% 30.00 in 10.0 mi Calm Calm - N/A   Overcast
2:35 AM 63.7 °F - 61.2 °F 91% 30.00 in 10.0 mi Calm Calm - N/A   Overcast
2:55 AM 63.3 °F - 61.0 °F 92% 30.00 in 10.0 mi NE 3.5 mph - N/A   Overcast
3:15 AM 63.5 °F - 61.0 °F 91% 30.00 in 10.0 mi NNE 3.5 mph - N/A   Overcast
3:35 AM 63.7 °F - 60.4 °F 89% 30.00 in 10.0 mi Calm Calm - N/A   Overcast
3:55 AM 63.1 °F - 60.8 °F 92% 30.00 in 10.0 mi NE 3.5 mph - N/A   Overcast
4:15 AM 63.9 °F - 60.3 °F 88% 30.00 in 10.0 mi Calm Calm - N/A   Overcast
4:35 AM 62.4 °F - 60.8 °F 94% 30.01 in 10.0 mi Calm Calm - N/A   Mostly Cloudy
4:55 AM 64.0 °F - 59.9 °F 86% 30.01 in 10.0 mi Calm Calm - N/A   Overcast
5:15 AM 64.4 °F - 59.9 °F 85% 30.00 in 10.0 mi Calm Calm - N/A   Overcast
5:35 AM 63.5 °F - 60.4 °F 90% 30.00 in 10.0 mi Calm Calm - N/A   Overcast
5:55 AM 64.4 °F - 60.6 °F 88% 30.00 in 10.0 mi SE 3.5 mph - N/A   Overcast
6:15 AM 64.4 °F - 60.3 °F 86% 30.00 in 10.0 mi Calm Calm - N/A   Mostly Cloudy
6:35 AM 63.1 °F - 60.8 °F 92% 30.01 in 10.0 mi Calm Calm - N/A   Mostly Cloudy
6:55 AM 62.6 °F - 60.6 °F 93% 30.00 in 10.0 mi Calm Calm - N/A   Mostly Cloudy
7:15 AM 62.4 °F - 60.8 °F 94% 30.01 in 10.0 mi Calm Calm - N/A   Mostly Cloudy
7:35 AM 64.6 °F - 61.2 °F 89% 30.02 in 10.0 mi Calm Calm - N/A   Overcast
7:55 AM 66.7 °F - 62.1 °F 85% 30.02 in 10.0 mi Calm Calm - N/A   Overcast
8:15 AM 67.3 °F - 62.2 °F 84% 30.02 in 10.0 mi Calm Calm - N/A   Overcast
8:35 AM 67.3 °F - 63.1 °F 87% 30.03 in 10.0 mi Calm Calm - N/A   Overcast
8:55 AM 68.0 °F - 63.1 °F 84% 30.04 in 10.0 mi Calm Calm - N/A   Overcast
9:15 AM 68.9 °F - 63.5 °F 83% 30.04 in 10.0 mi Calm Calm - N/A   Overcast
9:35 AM 69.3 °F - 64.2 °F 84% 30.04 in 10.0 mi SE 3.5 mph - N/A   Overcast
9:55 AM 71.1 °F - 64.4 °F 79% 30.03 in 5.0 mi Calm Calm - N/A   Haze
10:15 AM 72.1 °F - 64.4 °F 77% 30.04 in 7.0 mi Calm Calm - N/A   Overcast
10:35 AM 73.0 °F - 64.9 °F 76% 30.04 in 10.0 mi Calm Calm - N/A   Overcast
10:55 AM 73.6 °F - 65.1 °F 75% 30.04 in 10.0 mi SW 3.5 mph - N/A   Overcast
11:15 AM 74.1 °F - 65.8 °F 75% 30.04 in 10.0 mi WSW 3.5 mph - N/A   Overcast
11:35 AM 75.7 °F - 65.5 °F 70% 30.03 in 10.0 mi Calm Calm - N/A   Overcast
11:55 AM 77.5 °F - 65.7 °F 67% 30.03 in 10.0 mi South 3.5 mph - N/A   Overcast
12:15 PM 79.0 °F - 66.9 °F 66% 30.03 in 10.0 mi ESE 4.6 mph - N/A   Overcast
12:35 PM 79.7 °F - 65.3 °F 61% 30.02 in 10.0 mi South 5.8 mph - N/A   Overcast
12:55 PM 79.3 °F - 64.8 °F 61% 30.03 in 10.0 mi East 3.5 mph - N/A   Overcast
1:15 PM 80.2 °F 81.9 °F 64.0 °F 58% 30.02 in 10.0 mi SSE 3.5 mph - N/A   Overcast
1:35 PM 80.4 °F 82.1 °F 64.2 °F 58% 30.02 in 10.0 mi South 3.5 mph - N/A   Overcast
1:55 PM 79.9 °F - 65.5 °F 61% 30.02 in 10.0 mi SE 3.5 mph - N/A   Mostly Cloudy
2:15 PM 81.1 °F 83.4 °F 66.4 °F 61% 30.02 in 10.0 mi SW 6.9 mph - N/A   Scattered Clouds
2:35 PM 81.5 °F 83.4 °F 65.5 °F 58% 30.01 in 10.0 mi South 6.9 mph - N/A   Scattered Clouds
2:55 PM 82.2 °F 83.7 °F 64.0 °F 54% 30.00 in 10.0 mi SW 8.1 mph - N/A   Scattered Clouds
3:15 PM 82.6 °F 84.3 °F 64.9 °F 55% 30.00 in 10.0 mi SSW 5.8 mph - N/A   Mostly Cloudy
3:35 PM 82.4 °F 84.2 °F 65.1 °F 56% 30.00 in 10.0 mi West 4.6 mph - N/A   Overcast
3:55 PM 81.1 °F 83.2 °F 65.8 °F 60% 30.00 in 10.0 mi Calm Calm - N/A   Mostly Cloudy
4:15 PM 81.9 °F 83.9 °F 65.8 °F 58% 30.00 in 10.0 mi WSW 3.5 mph - N/A   Mostly Cloudy
4:35 PM 81.3 °F 83.5 °F 66.0 °F 60% 29.99 in 10.0 mi Calm Calm - N/A   Scattered Clouds
4:55 PM 81.9 °F 84.2 °F 66.6 °F 60% 30.00 in 10.0 mi SW 3.5 mph - N/A   Mostly Cloudy
5:15 PM 81.3 °F 83.5 °F 66.0 °F 60% 30.00 in 10.0 mi Calm Calm - N/A   Overcast
5:35 PM 81.3 °F 83.6 °F 66.6 °F 61% 30.00 in 10.0 mi Calm Calm - N/A   Mostly Cloudy
5:55 PM 80.6 °F 83.1 °F 67.3 °F 64% 30.00 in 10.0 mi Calm Calm - N/A   Mostly Cloudy
6:15 PM 80.1 °F 82.3 °F 67.1 °F 64% 30.00 in 10.0 mi Calm Calm - N/A   Overcast
6:55 PM 80.2 °F 82.5 °F 66.7 °F 63% 30.00 in 10.0 mi Calm Calm - N/A   Scattered Clouds
7:15 PM 79.7 °F - 68.7 °F 69% 30.00 in 10.0 mi Calm Calm - N/A   Clear
7:35 PM 78.8 °F - 70.2 °F 75% 30.00 in 10.0 mi Calm Calm - N/A   Mostly Cloudy
7:55 PM 76.5 °F - 70.7 °F 82% 30.00 in 10.0 mi Calm Calm - N/A   Mostly Cloudy
8:15 PM 77.7 °F - 69.4 °F 76% 29.99 in 10.0 mi Calm Calm - N/A   Scattered Clouds
8:35 PM 75.9 °F - 70.0 °F 82% 29.99 in 10.0 mi Calm Calm - N/A   Clear
8:55 PM 74.3 °F - 70.3 °F 87% 29.99 in 10.0 mi Calm Calm - N/A   Scattered Clouds
9:15 PM 73.4 °F - 70.5 °F 91% 29.99 in 10.0 mi Calm Calm - N/A   Overcast
9:35 PM 74.8 °F - 70.0 °F 85% 30.00 in 10.0 mi Calm Calm - N/A   Overcast
9:55 PM 74.1 °F - 70.0 °F 87% 30.00 in 10.0 mi Calm Calm - N/A   Overcast
10:15 PM 73.6 °F - 70.2 °F 89% 30.00 in 10.0 mi Calm Calm - N/A   Mostly Cloudy
10:35 PM 73.6 °F - 70.2 °F 89% 30.00 in 10.0 mi Calm Calm - N/A   Clear
10:55 PM 71.2 °F - 69.6 °F 95% 30.00 in 10.0 mi Calm Calm - N/A   Clear
11:15 PM 71.6 °F - 70.0 °F 95% 29.99 in 10.0 mi Calm Calm - N/A   Clear
11:35 PM 71.2 °F - 69.8 °F 95% 29.99 in 10.0 mi Calm Calm - N/A   Clear
11:55 PM 71.1 °F - 69.8 °F 96% 29.99 in 10.0 mi Calm Calm - N/A   Clear